,,PA_Meas_PMT16A,,PR_Meas_QMR101_102,,RH_Meas_QMH101,,SR_Meas_QMS101,,TA_Meas_QMH101,,GenWind,,GenWind,
time,status,PA,status,PR,status,RH,status,SR,status,TA,status,DirAvg,status,SpdAvg,
2011-02-12, 00:00:05,VALID,917.606,VALID,0,VALID,92.8837,VALID,0,VALID,18.2977,VALID,120,VALID,1.36758,
2011-02-12, 00:01:05,VALID,917.608,VALID,0,VALID,92.6169,VALID,0,VALID,18.2587,VALID,129,VALID,1.39922,
2011-02-12, 00:02:05,VALID,917.602,VALID,0,VALID,92.6093,VALID,0,VALID,18.2601,VALID,126,VALID,1.08867,
2011-02-12, 00:03:05,VALID,917.627,VALID,0,VALID,93.0362,VALID,0,VALID,18.2601,VALID,132,VALID,1.31484,
2011-02-12, 00:04:05,VALID,917.599,VALID,0,VALID,92.838,VALID,0.107441,VALID,18.2796,VALID,150,VALID,0.747656,
2011-02-12, 00:05:05,VALID,917.616,VALID,0,VALID,92.7617,VALID,0,VALID,18.2796,VALID,159,VALID,0.959375,
2011-02-12, 00:06:05,VALID,917.581,VALID,0,VALID,92.655,VALID,0,VALID,18.299,VALID,166,VALID,0.980078,
2011-02-12, 00:07:05,VALID,917.6,VALID,0,VALID,92.6169,VALID,0,VALID,18.3185,VALID,146,VALID,1.01758,
2011-02-12, 00:08:05,VALID,917.586,VALID,0,VALID,92.6245,VALID,0,VALID,18.3366,VALID,145,VALID,1.32539,
2011-02-12, 00:09:05,VALID,917.564,VALID,0,VALID,92.6016,VALID,0,VALID,18.338,VALID,140,VALID,1.76719,
2011-02-12, 00:10:05,VALID,917.583,VALID,0,VALID,92.6855,VALID,0,VALID,18.338,VALID,171,VALID,1.68477,
2011-02-12, 00:11:05,VALID,917.56,VALID,0,VALID,92.6016,VALID,0,VALID,18.3366,VALID,156,VALID,1.19023,
2011-02-12, 00:12:05,VALID,917.55,VALID,0,VALID,92.4187,VALID,0,VALID,18.3575,VALID,154,VALID,1.08047,
2011-02-12, 00:13:05,VALID,917.546,VALID,0,VALID,92.3653,VALID,0,VALID,18.338,VALID,152,VALID,1.14648,
2011-02-12, 00:14:05,VALID,917.513,VALID,0,VALID,92.0909,VALID,0,VALID,18.3172,VALID,138,VALID,1.10469,
2011-02-12, 00:15:05,VALID,917.518,VALID,0,VALID,91.9613,VALID,0,VALID,18.2977,VALID,137,VALID,0.897656,
2011-02-12, 00:16:05,VALID,917.504,VALID,0,VALID,92.068,VALID,0,VALID,18.299,VALID,137,VALID,1.54492,
2011-02-12, 00:17:05,VALID,917.513,VALID,0,VALID,91.9689,VALID,0,VALID,18.299,VALID,143,VALID,0.905469,
2011-02-12, 00:18:05,VALID,917.517,VALID,0,VALID,92.1595,VALID,0,VALID,18.2796,VALID,133,VALID,1.22773,
2011-02-12, 00:19:05,VALID,917.524,VALID,0,VALID,92.19,VALID,0,VALID,18.2796,VALID,151,VALID,0.940234,
2011-02-12, 00:20:05,VALID,917.5,VALID,0,VALID,91.9231,VALID,0,VALID,18.2796,VALID,149,VALID,0.939062,
2011-02-12, 00:21:05,VALID,917.472,VALID,0,VALID,91.8469,VALID,0,VALID,18.2977,VALID,153,VALID,0.764453,
2011-02-12, 00:22:05,VALID,917.451,VALID,0,VALID,91.3895,VALID,0.107441,VALID,18.3172,VALID,120,VALID,1.40273,
2011-02-12, 00:23:05,VALID,917.392,VALID,0,VALID,91.3133,VALID,0,VALID,18.3366,VALID,169,VALID,1.05,
2011-02-12, 00:24:05,VALID,917.377,VALID,0,VALID,91.4581,VALID,0,VALID,18.377,VALID,137,VALID,1.65742,
2011-02-12, 00:25:05,VALID,917.351,VALID,0,VALID,91.4505,VALID,0,VALID,18.377,VALID,136,VALID,1.42422,
2011-02-12, 00:26:05,VALID,917.319,VALID,0,VALID,91.4962,VALID,0,VALID,18.377,VALID,142,VALID,1.13281,
2011-02-12, 00:27:05,VALID,917.285,VALID,0,VALID,91.2447,VALID,0,VALID,18.3756,VALID,138,VALID,0.565234,
2011-02-12, 00:28:05,VALID,917.214,VALID,0,VALID,91.2828,VALID,0,VALID,18.377,VALID,140,VALID,0.935156,
2011-02-12, 00:29:05,VALID,917.237,VALID,0,VALID,91.237,VALID,0,VALID,18.3979,VALID,139,VALID,1.21406,
2011-02-12, 00:30:05,VALID,917.202,VALID,0,VALID,91.2218,VALID,0,VALID,18.377,VALID,147,VALID,1.00508,
2011-02-12, 00:31:05,VALID,917.204,VALID,0,VALID,91.0922,VALID,0,VALID,18.377,VALID,130,VALID,1.18008,
2011-02-12, 00:32:05,VALID,917.201,VALID,0,VALID,90.8787,VALID,0,VALID,18.3185,VALID,132,VALID,1.11719,
2011-02-12, 00:33:05,VALID,917.153,VALID,0,VALID,91.5572,VALID,0,VALID,18.299,VALID,143,VALID,1.26875,
2011-02-12, 00:34:05,VALID,917.164,VALID,0,VALID,91.6106,VALID,0,VALID,18.2392,VALID,143,VALID,0.88125,
2011-02-12, 00:35:05,VALID,917.176,VALID,0,VALID,91.8698,VALID,0,VALID,18.2016,VALID,118,VALID,1.1332,
2011-02-12, 00:36:05,VALID,917.157,VALID,0,VALID,92.1519,VALID,0,VALID,18.164,VALID,130,VALID,0.955078,
2011-02-12, 00:37:05,VALID,917.137,VALID,0,VALID,92.2814,VALID,0,VALID,18.0651,VALID,130,VALID,0.907422,
2011-02-12, 00:38:05,VALID,917.128,VALID,0,VALID,92.7693,VALID,0,VALID,18.0067,VALID,130,VALID,1.45,
2011-02-12, 00:39:05,VALID,917.102,VALID,0,VALID,92.9218,VALID,0,VALID,17.9287,VALID,130,VALID,0.930078,
2011-02-12, 00:40:05,VALID,917.113,VALID,0,VALID,93.242,VALID,0,VALID,17.8702,VALID,130,VALID,1.15664,
2011-02-12, 00:41:05,VALID,917.111,VALID,0,VALID,93.4326,VALID,0,VALID,17.8313,VALID,130,VALID,1.07187,
2011-02-12, 00:42:05,VALID,917.093,VALID,0,VALID,93.6384,VALID,0,VALID,17.8118,VALID,146,VALID,1.17773,
2011-02-12, 00:43:05,VALID,917.084,VALID,0,VALID,93.6537,VALID,0,VALID,17.7923,VALID,149,VALID,0.838672,
2011-02-12, 00:44:05,VALID,917.11,VALID,0,VALID,93.5698,VALID,0,VALID,17.7923,VALID,149,VALID,0.832422,
2011-02-12, 00:45:05,VALID,917.101,VALID,0,VALID,93.3564,VALID,0,VALID,17.7728,VALID,149,VALID,0.716797,
2011-02-12, 00:46:05,VALID,917.091,VALID,0,VALID,93.4707,VALID,0,VALID,17.8118,VALID,149,VALID,0.625,
2011-02-12, 00:47:05,VALID,917.091,VALID,0,VALID,93.3487,VALID,0.107441,VALID,17.7909,VALID,149,VALID,0.625781,
2011-02-12, 00:48:05,VALID,917.082,VALID,0,VALID,93.181,VALID,0,VALID,17.8313,VALID,149,VALID,0.791797,
2011-02-12, 00:49:05,VALID,917.078,VALID,0,VALID,92.8303,VALID,0,VALID,17.8313,VALID,149,VALID,0.866406,
2011-02-12, 00:50:05,VALID,917.063,VALID,0,VALID,92.3882,VALID,0,VALID,17.8702,VALID,149,VALID,0.909766,
2011-02-12, 00:51:05,VALID,917.062,VALID,0,VALID,91.9384,VALID,0,VALID,17.9092,VALID,149,VALID,1.05273,
2011-02-12, 00:52:05,VALID,917.054,VALID,0,VALID,91.7173,VALID,0,VALID,17.9287,VALID,149,VALID,0.530469,
2011-02-12, 00:53:05,VALID,917.033,VALID,0,VALID,91.542,VALID,0.107441,VALID,17.9092,VALID,149,VALID,0.278516,
2011-02-12, 00:54:05,VALID,917.061,VALID,0,VALID,91.1303,VALID,0.107441,VALID,17.8689,VALID,149,VALID,0.220313,
2011-02-12, 00:55:05,VALID,917.08,VALID,0,VALID,90.0249,VALID,0,VALID,17.8118,VALID,149,VALID,0.00585938,
2011-02-12, 00:56:05,VALID,917.062,VALID,0,VALID,91.2142,VALID,0,VALID,17.7533,VALID,148,VALID,0.830859,
2011-02-12, 00:57:05,VALID,917.076,VALID,0,VALID,90.9473,VALID,0,VALID,17.6948,VALID,130,VALID,0.751172,
2011-02-12, 00:58:05,VALID,917.093,VALID,0,VALID,91.4505,VALID,0,VALID,17.6948,VALID,129,VALID,1.01289,
2011-02-12, 00:59:05,VALID,917.094,VALID,0,VALID,91.4352,VALID,0,VALID,17.6754,VALID,105,VALID,0.875391,
2011-02-12, 01:00:05,VALID,917.088,VALID,0,VALID,91.4962,VALID,0,VALID,17.6169,VALID,105,VALID,0.825,
2011-02-12, 01:01:05,VALID,917.108,VALID,0,VALID,91.8774,VALID,0,VALID,17.5584,VALID,105,VALID,1.01445,
2011-02-12, 01:02:05,VALID,917.072,VALID,0,VALID,91.946,VALID,0,VALID,17.4805,VALID,105,VALID,0.995313,
2011-02-12, 01:03:05,VALID,917.103,VALID,0,VALID,92.3501,VALID,0,VALID,17.422,VALID,105,VALID,0.975781,
2011-02-12, 01:04:05,VALID,917.058,VALID,0,VALID,92.8685,VALID,0,VALID,17.3649,VALID,105,VALID,1.18047,
2011-02-12, 01:05:05,VALID,917.089,VALID,0,VALID,93.1505,VALID,0,VALID,17.3649,VALID,105,VALID,1.06797,
2011-02-12, 01:06:05,VALID,917.07,VALID,0,VALID,93.1886,VALID,0,VALID,17.383,VALID,105,VALID,1.38906,
2011-02-12, 01:07:05,VALID,917.088,VALID,0,VALID,92.9599,VALID,0,VALID,17.4428,VALID,105,VALID,1.18555,
2011-02-12, 01:08:05,VALID,917.086,VALID,0,VALID,92.5864,VALID,0,VALID,17.4623,VALID,120,VALID,1.07734,
2011-02-12, 01:09:05,VALID,917.048,VALID,0,VALID,92.3958,VALID,0,VALID,17.422,VALID,122,VALID,0.737109,
2011-02-12, 01:10:05,VALID,917.062,VALID,0,VALID,92.4797,VALID,0,VALID,17.4025,VALID,122,VALID,1.18867,
2011-02-12, 01:11:05,VALID,917.056,VALID,0,VALID,92.8989,VALID,0,VALID,17.4038,VALID,122,VALID,0.869141,
2011-02-12, 01:12:05,VALID,917.06,VALID,0,VALID,93.4173,VALID,0,VALID,17.3635,VALID,122,VALID,1.10938,
2011-02-12, 01:13:05,VALID,917.06,VALID,0,VALID,93.6232,VALID,0,VALID,17.3051,VALID,122,VALID,0.591797,
2011-02-12, 01:14:05,VALID,917.036,VALID,0,VALID,93.7451,VALID,0,VALID,17.2856,VALID,122,VALID,0.476563,
2011-02-12, 01:15:05,VALID,917.008,VALID,0,VALID,94.2178,VALID,0,VALID,17.2856,VALID,122,VALID,0.933984,
2011-02-12, 01:16:05,VALID,916.995,VALID,0,VALID,94.3855,VALID,0,VALID,17.2856,VALID,122,VALID,0.382813,
2011-02-12, 01:17:05,VALID,916.973,VALID,0,VALID,94.4465,VALID,0,VALID,17.2661,VALID,170,VALID,0.299219,
2011-02-12, 01:18:05,VALID,916.965,VALID,0,VALID,94.4541,VALID,0,VALID,17.2661,VALID,154,VALID,0.56875,
2011-02-12, 01:19:05,VALID,916.95,VALID,0,VALID,94.355,VALID,0,VALID,17.2661,VALID,153,VALID,0.551953,
2011-02-12, 01:20:05,VALID,916.914,VALID,0,VALID,94.1568,VALID,0,VALID,17.2271,VALID,153,VALID,0.452734,
2011-02-12, 01:21:05,VALID,916.897,VALID,0,VALID,94.1034,VALID,0,VALID,17.2271,VALID,153,VALID,0.620703,
2011-02-12, 01:22:05,VALID,916.871,VALID,0,VALID,94.0653,VALID,0,VALID,17.1882,VALID,152,VALID,0.608203,
2011-02-12, 01:23:05,VALID,916.875,VALID,0,VALID,93.6765,VALID,0,VALID,17.1882,VALID,121,VALID,0.841016,
2011-02-12, 01:24:05,VALID,916.897,VALID,0,VALID,93.2954,VALID,0,VALID,17.2285,VALID,121,VALID,1.02813,
2011-02-12, 01:25:05,VALID,916.868,VALID,0,VALID,93.059,VALID,0,VALID,17.2479,VALID,121,VALID,1.01914,
2011-02-12, 01:26:05,VALID,916.872,VALID,0,VALID,92.9218,VALID,0,VALID,17.2661,VALID,121,VALID,0.988281,
2011-02-12, 01:27:05,VALID,916.845,VALID,0,VALID,92.8075,VALID,0,VALID,17.3051,VALID,121,VALID,0.847656,
2011-02-12, 01:28:05,VALID,916.833,VALID,0,VALID,92.3729,VALID,0,VALID,17.3051,VALID,121,VALID,0.896484,
2011-02-12, 01:29:05,VALID,916.819,VALID,0,VALID,92.129,VALID,0,VALID,17.3259,VALID,121,VALID,1.2082,
2011-02-12, 01:30:05,VALID,916.813,VALID,0,VALID,92.2357,VALID,0,VALID,17.3064,VALID,121,VALID,1.22227,
2011-02-12, 01:31:05,VALID,916.796,VALID,0,VALID,92.3882,VALID,0,VALID,17.2856,VALID,121,VALID,1.18164,
2011-02-12, 01:32:05,VALID,916.786,VALID,0,VALID,92.3043,VALID,0,VALID,17.3051,VALID,121,VALID,1.21563,
2011-02-12, 01:33:05,VALID,916.756,VALID,0,VALID,92.0832,VALID,0,VALID,17.383,VALID,121,VALID,1.12227,
2011-02-12, 01:34:05,VALID,916.745,VALID,0,VALID,91.7249,VALID,0,VALID,17.4415,VALID,121,VALID,1.31602,
2011-02-12, 01:35:05,VALID,916.727,VALID,0,VALID,91.4734,VALID,0,VALID,17.5,VALID,121,VALID,1.40586,
2011-02-12, 01:36:05,VALID,916.697,VALID,0,VALID,91.0312,VALID,0,VALID,17.5403,VALID,121,VALID,0.658594,
2011-02-12, 01:37:05,VALID,916.655,VALID,0,VALID,90.6577,VALID,0,VALID,17.5403,VALID,121,VALID,0.569141,
2011-02-12, 01:38:05,VALID,916.642,VALID,0,VALID,90.8178,VALID,0,VALID,17.5194,VALID,150,VALID,0.879297,
2011-02-12, 01:39:05,VALID,916.638,VALID,0,VALID,90.833,VALID,0,VALID,17.5194,VALID,150,VALID,0.965234,
2011-02-12, 01:40:05,VALID,916.642,VALID,0,VALID,90.9702,VALID,0,VALID,17.5,VALID,150,VALID,0.920313,
2011-02-12, 01:41:05,VALID,916.585,VALID,0,VALID,91.4124,VALID,0,VALID,17.4415,VALID,150,VALID,0.91875,
2011-02-12, 01:42:05,VALID,916.625,VALID,0,VALID,91.7935,VALID,0,VALID,17.383,VALID,150,VALID,0.713281,
2011-02-12, 01:43:05,VALID,916.586,VALID,0,VALID,92.0832,VALID,0,VALID,17.3441,VALID,150,VALID,0.670313,
2011-02-12, 01:44:05,VALID,916.582,VALID,0,VALID,92.0832,VALID,0,VALID,17.3051,VALID,150,VALID,0.790625,
2011-02-12, 01:45:05,VALID,916.574,VALID,0,VALID,91.9765,VALID,0,VALID,17.2674,VALID,150,VALID,0.810547,
2011-02-12, 01:46:05,VALID,916.547,VALID,0,VALID,91.7631,VALID,0,VALID,17.2479,VALID,150,VALID,1.00703,
2011-02-12, 01:47:05,VALID,916.574,VALID,0,VALID,91.1684,VALID,0,VALID,17.1687,VALID,150,VALID,0.590234,
2011-02-12, 01:48:05,VALID,916.529,VALID,0,VALID,90.429,VALID,0,VALID,17.1505,VALID,150,VALID,0.81875,
2011-02-12, 01:49:05,VALID,916.535,VALID,0,VALID,91.359,VALID,0,VALID,17.0336,VALID,99,VALID,1.12227,
2011-02-12, 01:50:05,VALID,916.519,VALID,0,VALID,92.4644,VALID,0,VALID,16.9543,VALID,99,VALID,1.16758,
2011-02-12, 01:51:05,VALID,916.503,VALID,0,VALID,92.4568,VALID,0,VALID,16.9946,VALID,100,VALID,0.986328,
2011-02-12, 01:52:05,VALID,916.527,VALID,0,VALID,92.3043,VALID,0,VALID,17.0336,VALID,113,VALID,1.30586,
2011-02-12, 01:53:05,VALID,916.514,VALID,0,VALID,91.9536,VALID,0,VALID,17.0713,VALID,130,VALID,1.21523,
2011-02-12, 01:54:05,VALID,916.51,VALID,0,VALID,91.7097,VALID,0,VALID,17.1102,VALID,130,VALID,1.10703,
2011-02-12, 01:55:05,VALID,916.512,VALID,0,VALID,91.4657,VALID,0,VALID,17.131,VALID,130,VALID,1.16055,
2011-02-12, 01:56:05,VALID,916.485,VALID,0,VALID,91.5572,VALID,0,VALID,17.1115,VALID,130,VALID,1.26992,
2011-02-12, 01:57:05,VALID,916.463,VALID,0,VALID,91.4124,VALID,0,VALID,17.1492,VALID,130,VALID,1.67031,
2011-02-12, 01:58:05,VALID,916.46,VALID,0,VALID,91.1303,VALID,0,VALID,17.1882,VALID,126,VALID,1.49023,
2011-02-12, 01:59:05,VALID,916.438,VALID,0,VALID,90.8787,VALID,0,VALID,17.2466,VALID,123,VALID,1.57773,
2011-02-12, 02:00:05,VALID,916.44,VALID,0,VALID,90.6424,VALID,0,VALID,17.3064,VALID,114,VALID,1.38711,
2011-02-12, 02:01:05,VALID,916.438,VALID,0,VALID,90.5357,VALID,0,VALID,17.2856,VALID,110,VALID,1.10312,
2011-02-12, 02:02:05,VALID,916.441,VALID,0,VALID,90.5738,VALID,0,VALID,17.2869,VALID,110,VALID,1.29297,
2011-02-12, 02:03:05,VALID,916.443,VALID,0,VALID,91.0541,VALID,0,VALID,17.2674,VALID,110,VALID,1.52266,
2011-02-12, 02:04:05,VALID,916.422,VALID,0,VALID,90.9245,VALID,0,VALID,17.3064,VALID,110,VALID,1.78437,
2011-02-12, 02:05:05,VALID,916.422,VALID,0,VALID,90.3756,VALID,0,VALID,17.3649,VALID,110,VALID,1.50156,
2011-02-12, 02:06:05,VALID,916.402,VALID,0,VALID,89.8648,VALID,0,VALID,17.4233,VALID,110,VALID,1.54453,
2011-02-12, 02:07:05,VALID,916.37,VALID,0,VALID,89.4303,VALID,0,VALID,17.5013,VALID,110,VALID,1.55977,
2011-02-12, 02:08:05,VALID,916.396,VALID,0,VALID,89.1025,VALID,0,VALID,17.5598,VALID,110,VALID,1.25664,
2011-02-12, 02:09:05,VALID,916.392,VALID,0,VALID,88.5917,VALID,0,VALID,17.5987,VALID,110,VALID,1.24688,
2011-02-12, 02:10:05,VALID,916.382,VALID,0,VALID,88.4088,VALID,0,VALID,17.5987,VALID,110,VALID,1.15586,
2011-02-12, 02:11:05,VALID,916.379,VALID,0,VALID,88.3401,VALID,0,VALID,17.5792,VALID,110,VALID,1.02305,
2011-02-12, 02:12:05,VALID,916.364,VALID,0,VALID,88.5536,VALID,0,VALID,17.5403,VALID,110,VALID,1.13164,
2011-02-12, 02:13:04,VALID,916.366,VALID,0,VALID,88.6527,VALID,0,VALID,17.5013,VALID,110,VALID,1.10312,
2011-02-12, 02:14:04,VALID,916.382,VALID,0,VALID,88.7213,VALID,0,VALID,17.4623,VALID,110,VALID,1.08672,
2011-02-12, 02:15:04,VALID,916.377,VALID,0,VALID,89.0872,VALID,0,VALID,17.4038,VALID,110,VALID,1.03828,
2011-02-12, 02:16:04,VALID,916.378,VALID,0,VALID,89.5142,VALID,0,VALID,17.3064,VALID,110,VALID,1.10938,
2011-02-12, 02:17:04,VALID,916.383,VALID,0,VALID,89.8343,VALID,0,VALID,17.2479,VALID,110,VALID,1.06445,
2011-02-12, 02:18:04,VALID,916.406,VALID,0,VALID,90.063,VALID,0,VALID,17.17,VALID,110,VALID,0.909766,
2011-02-12, 02:19:04,VALID,916.393,VALID,0,VALID,90.3222,VALID,0,VALID,17.1505,VALID,112,VALID,0.897266,
2011-02-12, 02:20:04,VALID,916.439,VALID,0,VALID,90.4899,VALID,0,VALID,17.1115,VALID,113,VALID,0.863672,
2011-02-12, 02:21:04,VALID,916.422,VALID,0,VALID,90.5509,VALID,0,VALID,17.0531,VALID,113,VALID,0.476563,
2011-02-12, 02:22:04,VALID,916.436,VALID,0,VALID,91.1227,VALID,0,VALID,16.9946,VALID,113,VALID,0.642578,
2011-02-12, 02:23:04,VALID,916.437,VALID,0,VALID,91.885,VALID,0,VALID,16.9154,VALID,129,VALID,0.667188,
2011-02-12, 02:24:04,VALID,916.444,VALID,0,VALID,92.3119,VALID,0,VALID,16.8582,VALID,129,VALID,0.582031,
2011-02-12, 02:25:04,VALID,916.378,VALID,0,VALID,92.6855,VALID,0,VALID,16.779,VALID,129,VALID,0.675781,
2011-02-12, 02:26:04,VALID,916.383,VALID,0,VALID,93.0895,VALID,0,VALID,16.7608,VALID,129,VALID,0.614062,
2011-02-12, 02:27:04,VALID,916.39,VALID,0,VALID,93.4478,VALID,0,VALID,16.7023,VALID,129,VALID,0.742578,
2011-02-12, 02:28:04,VALID,916.37,VALID,0,VALID,94.012,VALID,0,VALID,16.6439,VALID,129,VALID,0.996094,
2011-02-12, 02:29:04,VALID,916.354,VALID,0,VALID,94.2712,VALID,0,VALID,16.6049,VALID,129,VALID,0.751172,
2011-02-12, 02:30:04,VALID,916.341,VALID,0,VALID,93.9815,VALID,0,VALID,16.5257,VALID,129,VALID,0.84375,
2011-02-12, 02:31:04,VALID,916.332,VALID,0,VALID,93.8595,VALID,0,VALID,16.5452,VALID,129,VALID,1.13008,
2011-02-12, 02:32:04,VALID,916.308,VALID,0,VALID,93.5393,VALID,0,VALID,16.5659,VALID,116,VALID,1.46289,
2011-02-12, 02:33:04,VALID,916.285,VALID,0,VALID,92.9752,VALID,0,VALID,16.6036,VALID,116,VALID,1.19648,
2011-02-12, 02:34:04,VALID,916.281,VALID,0,VALID,92.1214,VALID,0,VALID,16.6828,VALID,116,VALID,1.25117,
2011-02-12, 02:35:04,VALID,916.256,VALID,0,VALID,91.5039,VALID,0,VALID,16.7413,VALID,121,VALID,1.46563,
2011-02-12, 02:36:04,VALID,916.252,VALID,0,VALID,91.0541,VALID,0,VALID,16.7998,VALID,122,VALID,1.34375,
2011-02-12, 02:37:04,VALID,916.243,VALID,0,VALID,90.65,VALID,0,VALID,16.8764,VALID,122,VALID,1.53398,
2011-02-12, 02:38:04,VALID,916.236,VALID,0,VALID,89.8877,VALID,0,VALID,16.9751,VALID,118,VALID,1.32695,
2011-02-12, 02:39:04,VALID,916.219,VALID,0,VALID,89.781,VALID,0,VALID,17.0336,VALID,130,VALID,1.3875,
2011-02-12, 02:40:04,VALID,916.246,VALID,0,VALID,89.4455,VALID,0,VALID,17.0726,VALID,130,VALID,1.54883,
2011-02-12, 02:41:04,VALID,916.265,VALID,0,VALID,89.4074,VALID,0,VALID,17.0518,VALID,131,VALID,1.39609,
2011-02-12, 02:42:04,VALID,916.255,VALID,0,VALID,89.4303,VALID,0.107441,VALID,17.092,VALID,127,VALID,1.85781,
2011-02-12, 02:43:04,VALID,916.26,VALID,0,VALID,89.3617,VALID,0,VALID,17.0907,VALID,127,VALID,1.40234,
2011-02-12, 02:44:04,VALID,916.261,VALID,0,VALID,89.2626,VALID,0,VALID,17.092,VALID,127,VALID,1.17266,
2011-02-12, 02:45:04,VALID,916.276,VALID,0,VALID,89.5828,VALID,0,VALID,17.0323,VALID,127,VALID,1.32305,
2011-02-12, 02:46:04,VALID,916.258,VALID,0,VALID,90.0707,VALID,0,VALID,16.9933,VALID,124,VALID,1.02891,
2011-02-12, 02:47:04,VALID,916.294,VALID,0,VALID,90.2155,VALID,0,VALID,16.9154,VALID,124,VALID,0.959375,
2011-02-12, 02:48:04,VALID,916.269,VALID,0,VALID,90.7873,VALID,0,VALID,16.8569,VALID,124,VALID,0.796484,
2011-02-12, 02:49:04,VALID,916.258,VALID,0,VALID,91.3057,VALID,0,VALID,16.7998,VALID,124,VALID,0.664453,
2011-02-12, 02:50:04,VALID,916.27,VALID,0,VALID,91.7554,VALID,0,VALID,16.7023,VALID,124,VALID,1.18594,
2011-02-12, 02:51:04,VALID,916.224,VALID,0,VALID,91.9689,VALID,0,VALID,16.6231,VALID,101,VALID,1.16523,
2011-02-12, 02:52:04,VALID,916.206,VALID,0,VALID,92.4797,VALID,0,VALID,16.6049,VALID,102,VALID,1.09453,
2011-02-12, 02:53:04,VALID,916.178,VALID,0,VALID,92.7084,VALID,0,VALID,16.5659,VALID,109,VALID,1.35625,
2011-02-12, 02:54:04,VALID,916.213,VALID,0,VALID,92.7693,VALID,0,VALID,16.5659,VALID,108,VALID,1.48008,
2011-02-12, 02:55:04,VALID,916.219,VALID,0,VALID,92.4949,VALID,0,VALID,16.6049,VALID,116,VALID,1.03555,
2011-02-12, 02:56:04,VALID,916.196,VALID,0,VALID,92.2205,VALID,0,VALID,16.6049,VALID,116,VALID,1.04961,
2011-02-12, 02:57:04,VALID,916.225,VALID,0,VALID,92.1976,VALID,0,VALID,16.6049,VALID,116,VALID,1.27383,
2011-02-12, 02:58:04,VALID,916.226,VALID,0,VALID,91.824,VALID,0,VALID,16.6439,VALID,116,VALID,1.04961,
2011-02-12, 02:59:04,VALID,916.173,VALID,0,VALID,91.481,VALID,0,VALID,16.6439,VALID,116,VALID,1.08164,
2011-02-12, 03:00:04,VALID,916.181,VALID,0,VALID,91.6411,VALID,0,VALID,16.6244,VALID,116,VALID,1.21797,
2011-02-12, 03:01:04,VALID,916.173,VALID,0,VALID,91.6411,VALID,0,VALID,16.6634,VALID,116,VALID,1.34883,
2011-02-12, 03:02:04,VALID,916.142,VALID,0,VALID,91.542,VALID,0,VALID,16.7036,VALID,115,VALID,1.40117,
2011-02-12, 03:03:04,VALID,916.169,VALID,0,VALID,91.3057,VALID,0,VALID,16.7023,VALID,116,VALID,1.56953,
2011-02-12, 03:04:04,VALID,916.153,VALID,0,VALID,90.9626,VALID,0,VALID,16.7205,VALID,116,VALID,1.43984,
2011-02-12, 03:05:04,VALID,916.118,VALID,0,VALID,90.8101,VALID,0,VALID,16.7608,VALID,116,VALID,0.910937,
2011-02-12, 03:06:04,VALID,916.148,VALID,0,VALID,90.8254,VALID,0,VALID,16.7998,VALID,116,VALID,1.33398,
2011-02-12, 03:07:04,VALID,916.114,VALID,0,VALID,90.3908,VALID,0,VALID,16.8582,VALID,116,VALID,1.11523,
2011-02-12, 03:08:04,VALID,916.119,VALID,0,VALID,90.2994,VALID,0,VALID,16.8777,VALID,116,VALID,1.09375,
2011-02-12, 03:09:04,VALID,916.157,VALID,0,VALID,90.2231,VALID,0,VALID,16.8764,VALID,116,VALID,0.961328,
2011-02-12, 03:10:04,VALID,916.143,VALID,0,VALID,90.2079,VALID,0,VALID,16.8764,VALID,116,VALID,1.35273,
2011-02-12, 03:11:04,VALID,916.185,VALID,0,VALID,90.0783,VALID,0,VALID,16.9362,VALID,116,VALID,1.27461,
2011-02-12, 03:12:04,VALID,916.189,VALID,0,VALID,89.7429,VALID,0,VALID,16.9556,VALID,116,VALID,1.21328,
2011-02-12, 03:13:04,VALID,916.171,VALID,0,VALID,89.4379,VALID,0,VALID,16.9362,VALID,116,VALID,1.10039,
2011-02-12, 03:14:04,VALID,916.185,VALID,0,VALID,89.2854,VALID,0.107441,VALID,16.9556,VALID,133,VALID,0.971094,
2011-02-12, 03:15:04,VALID,916.182,VALID,0,VALID,88.9653,VALID,0,VALID,16.9154,VALID,137,VALID,0.964063,
2011-02-12, 03:16:04,VALID,916.174,VALID,0,VALID,89.0034,VALID,0,VALID,16.9556,VALID,132,VALID,0.907812,
2011-02-12, 03:17:04,VALID,916.2,VALID,0,VALID,88.9348,VALID,0.107441,VALID,16.9543,VALID,152,VALID,0.914063,
2011-02-12, 03:18:04,VALID,916.189,VALID,0,VALID,88.8585,VALID,0,VALID,16.9946,VALID,152,VALID,0.856641,
2011-02-12, 03:19:04,VALID,916.186,VALID,0,VALID,88.8738,VALID,0,VALID,16.9946,VALID,152,VALID,0.624609,
2011-02-12, 03:20:04,VALID,916.168,VALID,0,VALID,89.2702,VALID,0,VALID,16.9362,VALID,138,VALID,1.00234,
2011-02-12, 03:21:04,VALID,916.194,VALID,0,VALID,89.6133,VALID,0,VALID,16.9167,VALID,130,VALID,0.959766,
2011-02-12, 03:22:04,VALID,916.179,VALID,0,VALID,89.7733,VALID,0,VALID,16.9167,VALID,130,VALID,0.852344,
2011-02-12, 03:23:04,VALID,916.177,VALID,0,VALID,89.7505,VALID,0,VALID,16.8972,VALID,132,VALID,1.14297,
2011-02-12, 03:24:04,VALID,916.223,VALID,0,VALID,89.7657,VALID,0,VALID,16.8764,VALID,136,VALID,0.803125,
2011-02-12, 03:25:04,VALID,916.25,VALID,0,VALID,89.9334,VALID,0,VALID,16.8582,VALID,136,VALID,0.823828,
2011-02-12, 03:26:04,VALID,916.248,VALID,0,VALID,89.8801,VALID,0,VALID,16.8192,VALID,136,VALID,0.811328,
2011-02-12, 03:27:04,VALID,916.259,VALID,0,VALID,89.8801,VALID,0,VALID,16.7803,VALID,136,VALID,0.446484,
2011-02-12, 03:28:04,VALID,916.264,VALID,0,VALID,90.124,VALID,0,VALID,16.7413,VALID,136,VALID,0.6125,
2011-02-12, 03:29:04,VALID,916.266,VALID,0,VALID,90.1088,VALID,0,VALID,16.7023,VALID,136,VALID,0.426562,
2011-02-12, 03:30:04,VALID,916.251,VALID,0,VALID,90.5509,VALID,0,VALID,16.6828,VALID,136,VALID,0.638281,
2011-02-12, 03:31:04,VALID,916.245,VALID,0,VALID,91.1151,VALID,0,VALID,16.6634,VALID,136,VALID,0.754297,
2011-02-12, 03:32:04,VALID,916.243,VALID,0,VALID,91.4962,VALID,0,VALID,16.6049,VALID,136,VALID,0.654688,
2011-02-12, 03:33:04,VALID,916.239,VALID,0,VALID,91.5953,VALID,0,VALID,16.5854,VALID,136,VALID,0.753125,
2011-02-12, 03:34:04,VALID,916.254,VALID,0,VALID,91.7097,VALID,0,VALID,16.5659,VALID,136,VALID,0.739453,
2011-02-12, 03:35:04,VALID,916.25,VALID,0,VALID,91.603,VALID,0,VALID,16.5659,VALID,136,VALID,0.940625,
2011-02-12, 03:36:04,VALID,916.272,VALID,0,VALID,91.2523,VALID,0,VALID,16.5854,VALID,136,VALID,0.862109,
2011-02-12, 03:37:04,VALID,916.283,VALID,0,VALID,90.7339,VALID,0,VALID,16.5854,VALID,136,VALID,0.739844,
2011-02-12, 03:38:04,VALID,916.277,VALID,0,VALID,90.3146,VALID,0,VALID,16.6049,VALID,136,VALID,0.837891,
2011-02-12, 03:39:04,VALID,916.263,VALID,0,VALID,90.2231,VALID,0,VALID,16.6439,VALID,135,VALID,0.980469,
2011-02-12, 03:40:04,VALID,916.281,VALID,0,VALID,90.0478,VALID,0,VALID,16.6439,VALID,118,VALID,1.03125,
2011-02-12, 03:41:04,VALID,916.254,VALID,0,VALID,89.9563,VALID,0,VALID,16.6244,VALID,118,VALID,1.06211,
2011-02-12, 03:42:04,VALID,916.278,VALID,0,VALID,90.0783,VALID,0,VALID,16.6244,VALID,118,VALID,1.11523,
2011-02-12, 03:43:04,VALID,916.276,VALID,0,VALID,89.9868,VALID,0,VALID,16.6634,VALID,118,VALID,1.06445,
2011-02-12, 03:44:04,VALID,916.314,VALID,0,VALID,89.9563,VALID,0,VALID,16.6439,VALID,118,VALID,1.22383,
2011-02-12, 03:45:04,VALID,916.303,VALID,0,VALID,89.7962,VALID,0,VALID,16.6244,VALID,118,VALID,1.09492,